Flag for U.S.A. Weather past 2 weeks in Pittsburgh, Pennsylvania, U.S.A.

Now
47 °F

Overcast.


Feels Like: 43 °F
Forecast: 46 / 60 °F
Wind: 8 mph from North

Location: Allegheny County Airport

Current Time: Oct 22, 2014 at 10:20:33 PM

Latest Report: Oct 22, 2014 at 9:53 PM


Visibility: 10 mi

Pressure: 30.19 "Hg

Humidity: 71%

Dew point: 38 °F

Location of PittsburghLocation

Historic Weather in Pittsburgh — Graph

°F

Pittsburgh temperature yesterday

Maximum temperature yesterday: 55 °F (at 2:53 PM)
Minimum temperature yesterday: 47 °F (at 11:53 PM)
Average temperature yesterday: 50 °F

Past Weeks' High & Low Weather Summary

 TemperatureHumidityPressure
High82 °F (Oct 14, 1:53 PM)90% (Oct 10, 3:53 AM)30.23 "Hg (Oct 10, 3:53 AM)
Low40 °F (Oct 12, 6:53 AM)35% (Oct 14, 1:53 PM)29.61 "Hg (Oct 17, 4:53 PM)
Average54 °F69%29.97 "Hg
* Reported Oct 7 8:53 PM — Oct 22 8:53 PM, Pittsburgh, Weather by CustomWeather, © 2014

Note: Actual official high and low records may vary slightly from our data, if they occured in-between our weather recording intervals... More about our weather records

Advertising

Pittsburgh weather history for previous 24 hours

 ConditionsComfort  
Time TempWeatherWind HumidityBarometerVisibility
8:53 PM
Oct 22
47 °FOvercast.8 mph71%30.19 "Hg10 mi
7:53 PM47 °FOvercast.8 mph71%30.19 "Hg10 mi
6:53 PM48 °FOvercast.13 mph71%30.18 "Hg10 mi
5:53 PM49 °FOvercast.8 mph69%30.17 "Hg10 mi
4:53 PM49 °FOvercast.12 mph69%30.17 "Hg10 mi
3:53 PM49 °FOvercast.15 mph69%30.17 "Hg10 mi
2:53 PM49 °FOvercast.9 mph69%30.17 "Hg10 mi
1:53 PM49 °FOvercast.12 mph71%30.16 "Hg10 mi
12:53 PM49 °FOvercast.13 mph71%30.17 "Hg10 mi
12:00 PM48 °FOvercast.8 mph74%30.15 "Hg10 mi
10:53 AM48 °FOvercast.7 mph77%30.17 "Hg10 mi
9:53 AM47 °FOvercast.9 mph80%30.16 "Hg10 mi
9:00 AM47 °FOvercast.7 mph77%30.12 "Hg10 mi
7:53 AM46 °FOvercast.13 mph79%30.12 "Hg10 mi
6:53 AM46 °FOvercast.12 mph79%30.10 "Hg10 mi
5:53 AM47 °FOvercast.9 mph83%30.09 "Hg10 mi
4:53 AM47 °FOvercast.8 mph86%30.06 "Hg10 mi
3:53 AM48 °FOvercast.12 mph86%30.03 "Hg9 mi
2:53 AM48 °FFog.8 mph86%30.03 "Hg5 mi
1:53 AM48 °FLight rain. Fog.8 mph86%30.02 "Hg3 mi
12:53 AM47 °FLight rain. Fog.8 mph90%30.03 "Hg4 mi
11:53 PM
Oct 21
47 °FLight rain. Fog.5 mph90%30.03 "Hg5 mi
10:53 PM48 °FLight rain. Overcast.7 mph83%30.03 "Hg6 mi
10:01 PM48 °FLow clouds.9 mph80%30.00 "Hg7 mi
Weather by CustomWeather, © 2014

See weather overviewHow to use our weather pages